Location: ??????
(41.3164°N, 22.6615°E)
Time: 01:27:40
(UTC+00:00)

METEOR 2-5 DEB - Visible Passes

Search period start: 03 February 2023 00:00
Search period end: 13 February 2023 00:00
Orbit: 756 x 780 km, 81.2° (Epoch: 02 January)

Date Brightness Start Highest point End Pass type
(mag) Time Alt. Az. Time Alt. Az. Time Alt. Az.
03 Feb ? 02:24:20 10° ESE 02:27:16 15° E 02:30:12 10° NE visible
03 Feb ? 04:02:46 10° SSW 04:07:50 58° WNW 04:12:55 10° N visible
03 Feb ? 16:14:33 10° WNW 16:16:02 11° W 16:17:30 10° W visible
04 Feb ? 03:25:34 10° S 03:30:41 75° E 03:35:50 10° NNE visible
05 Feb ? 02:48:55 10° SSE 02:53:39 39° E 02:58:24 10° NNE visible
05 Feb ? 04:30:48 10° WSW 04:34:54 24° WNW 04:39:02 10° NNW visible
06 Feb ? 02:14:42 17° ESE 02:16:44 21° E 02:20:30 10° NE visible
06 Feb ? 03:55:07 26° SW 03:57:30 43° WNW 04:02:25 10° N visible
07 Feb ? 01:39:49 11° E 01:39:57 11° E 01:40:59 10° ENE visible
07 Feb ? 03:20:09 81° WSW 03:20:16 82° W 03:25:26 10° N visible
08 Feb ? 02:44:28 41° NE 02:44:28 41° NE 02:48:07 10° NNE visible
08 Feb ? 04:24:45 18° WNW 04:24:45 18° WNW 04:28:06 10° NNW visible
09 Feb ? 02:08:26 20° NE 02:08:26 20° NE 02:10:25 10° NNE visible
09 Feb ? 03:48:42 27° NW 03:48:42 27° NW 03:51:43 10° N visible
10 Feb ? 03:12:27 27° N 03:12:27 27° N 03:14:50 10° N visible
11 Feb ? 02:36:03 20° NNE 02:36:03 20° NNE 02:37:36 10° NNE visible
11 Feb ? 04:16:18 11° NW 04:16:18 11° NW 04:16:46 10° NW visible
12 Feb ? 01:59:32 13° NNE 01:59:32 13° NNE 02:00:03 10° NNE visible
12 Feb ? 03:39:47 14° NNW 03:39:47 14° NNW 03:40:46 10° NNW visible
